Weather History for Metropolis, IL

Change the Weather History Date:

Wednesday, August 27, 2014

  Actual Average (KPAH) Record (KPAH)
Temperature  
Mean Temperature 81 °F 76 °F  
Max Temperature 92 °F 88 °F 104 °F (1943)
Min Temperature 70 °F 65 °F 52 °F (1945)
Degree Days  
Heating Degree Days 0 0  
Month to date heating degree days 0  
Since 1 June heating degree days 4  
Since 1 July heating degree days 0  
Cooling Degree Days 16 11  
Month to date cooling degree days 343  
Year to date cooling degree days 1266  
Since 1 June cooling degree days 1094  
Growing Degree Days 31 (Base 50)    
Moisture  
Dew Point 74 °F    
Average Humidity 81    
Maximum Humidity 100    
Minimum Humidity 52    
Precipitation  
Precipitation 0.11 in 0.08 in 1.70 in (1982)
Month to date precipitation 2.41  
Year to date precipitation 32.13  
Snow  
Snow 0.00 in 0.00 in 0.00 in (2002)
Month to date snowfall 0.0  
Since 1 June snowfall 0.0  
Since 1 July snowfall 0.0  
Snow Depth -    
Sea Level Pressure  
Sea Level Pressure 30.06 in    
Wind  
Wind Speed 0 mph (ESE)    
Max Wind Speed 5 mph    
Max Gust Speed -    
Visibility 6 miles    
Events Thunderstorm    
T = Trace of Precipitation, MM = Missing Value Source: NWS Daily Summary

Daily Weather History Graph

Daily Weather History Graph

Search for Another Location

Airport:

Trip Planner

Search our weather history database for the weather conditions in past years. The results will help you decide how hot, cold, wet, or windy it might be!

Date:

Astronomy

Aug. 27, 2014 Rise Set
Actual Time 6:21 AM CDT 7:30 PM CDT
Civil Twilight 5:54 AM CDT 7:57 PM CDT
Nautical Twilight 5:22 AM CDT 8:29 PM CDT
Astronomical Twilight 4:49 AM CDT 9:02 PM CDT
Moon 8:13 AM CDT (8/27) 8:27 PM CDT (8/27)
Length of Visible Light 14h 03m
Length of Day
13h 09m
Waxing Crescent, 4% of the Moon is Illuminated
Aug 27
Waxing Crescent
Sep 2
First Quarter
Sep 8
Full
Sep 15
Last Quarter
Sep 24
New

Hourly Weather History & Observations

Time (CDT) Temp. Heat Index Dew Point Humidity Pressure Visibility Wind Dir Wind Speed Gust Speed Precip Events Conditions
12:15 AM 74.7 °F - 73.4 °F 96% 30.07 in 3.0 mi Calm Calm - N/A   Clear
12:35 AM 74.3 °F - 72.9 °F 95% 30.07 in 4.0 mi Calm Calm - N/A   Clear
12:55 AM 74.1 °F - 72.7 °F 95% 30.07 in 4.0 mi Calm Calm - N/A   Clear
1:15 AM 73.6 °F - 72.5 °F 96% 30.07 in 4.0 mi Calm Calm - N/A   Clear
1:35 AM 73.6 °F - 72.3 °F 96% 30.07 in 4.0 mi Calm Calm - N/A   Clear
1:55 AM 73.2 °F - 72.0 °F 96% 30.06 in 4.0 mi Calm Calm - N/A   Clear
2:15 AM 72.9 °F - 71.8 °F 96% 30.06 in 4.0 mi Calm Calm - N/A   Clear
2:35 AM 72.9 °F - 71.8 °F 96% 30.06 in 3.0 mi Calm Calm - N/A   Clear
2:55 AM 73.0 °F - 72.0 °F 96% 30.06 in 2.5 mi Calm Calm - N/A   Clear
3:15 AM 72.5 °F - 71.6 °F 97% 30.06 in 2.5 mi Calm Calm - N/A   Clear
3:35 AM 72.5 °F - 71.6 °F 97% 30.06 in 1.5 mi Calm Calm - N/A   Mist
3:55 AM 72.1 °F - 71.6 °F 98% 30.06 in 2.0 mi Calm Calm - N/A   Clear
4:15 AM 71.8 °F - 71.1 °F 98% 30.06 in 1.8 mi Calm Calm - N/A   Mist
4:35 AM 72.0 °F - 71.2 °F 98% 30.06 in 1.8 mi Calm Calm - N/A   Mist
4:55 AM 72.0 °F - 71.2 °F 98% 30.06 in 2.0 mi Calm Calm - N/A   Clear
5:15 AM 71.6 °F - 70.7 °F 97% 30.06 in 1.8 mi Calm Calm - N/A   Mist
5:35 AM 71.1 °F - 70.5 °F 98% 30.07 in 1.5 mi Calm Calm - N/A   Mist
5:55 AM 71.2 °F - 70.7 °F 98% 30.07 in 1.5 mi Calm Calm - N/A   Mist
6:15 AM 70.9 °F - 70.3 °F 98% 30.08 in 1.5 mi Calm Calm - N/A   Mist
6:35 AM 71.1 °F - 70.5 °F 98% 30.08 in 1.8 mi Calm Calm - N/A   Mist
6:55 AM 71.4 °F - 70.9 °F 98% 30.08 in 1.8 mi Calm Calm - N/A   Mist
7:15 AM 72.9 °F - 72.5 °F 99% 30.08 in 2.5 mi Calm Calm - 0.01 in   Clear
7:35 AM 74.1 °F - 73.4 °F 98% 30.08 in 3.0 mi Calm Calm - 0.01 in   Clear
7:50 AM 75.4 °F - 74.7 °F 98% 30.08 in 4.0 mi Calm Calm - 0.01 in   Clear
8:15 AM 77.4 °F - 75.0 °F 92% 30.09 in 5.0 mi Calm Calm - N/A   Clear
8:35 AM 79.3 °F - 74.7 °F 86% 30.09 in 7.0 mi Calm Calm - N/A   Clear
8:55 AM 81.1 °F 86.4 °F 73.8 °F 78% 30.09 in 10.0 mi Calm Calm - N/A   Clear
9:15 AM 82.6 °F 87.6 °F 72.0 °F 70% 30.10 in 10.0 mi Calm Calm - N/A   Clear
9:35 AM 83.3 °F 88.4 °F 72.0 °F 68% 30.10 in 10.0 mi WNW 3.5 mph - N/A   Clear
9:55 AM 85.1 °F 91.1 °F 72.1 °F 65% 30.11 in 10.0 mi Calm Calm - N/A   Clear
10:15 AM - - - N/A% - - North - - N/A   Unknown
10:35 AM - - - N/A% 30.11 in - Calm Calm - 0.10 in   Clear
10:55 AM 89.1 °F 99.6 °F 75.6 °F 64% 30.11 in - Calm Calm - 0.10 in   Clear
11:15 AM 87.4 °F 96.7 °F 74.8 °F 66% 30.11 in 10.0 mi Calm Calm - N/A   Clear
11:35 AM 88.2 °F 97.4 °F 74.5 °F 64% 30.10 in 10.0 mi Calm Calm - N/A   Clear
11:55 AM 89.2 °F 99.0 °F 74.5 °F 62% 30.09 in 10.0 mi Calm Calm - N/A   Clear
12:15 PM 89.4 °F 98.3 °F 74.1 °F 60% 30.09 in 10.0 mi WSW 3.5 mph - N/A   Scattered Clouds
12:35 PM 91.0 °F 100.4 °F 73.8 °F 57% 30.08 in 10.0 mi East 3.5 mph - N/A   Scattered Clouds
12:55 PM 91.0 °F 101.0 °F 74.3 °F 58% 30.08 in 10.0 mi ENE 4.6 mph - N/A   Scattered Clouds
1:15 PM 91.4 °F 99.5 °F 72.9 °F 54% 30.07 in 10.0 mi Calm Calm - N/A   Clear
1:35 PM 90.9 °F 99.4 °F 73.0 °F 56% 30.07 in 10.0 mi NNE 3.5 mph - N/A   Clear
1:55 PM 91.6 °F 101.1 °F 73.9 °F 56% 30.06 in 10.0 mi Calm Calm - N/A   Scattered Clouds
2:15 PM 91.9 °F 102.6 °F 74.8 °F 57% 30.06 in 10.0 mi SW 3.5 mph - N/A   Scattered Clouds
2:35 PM 91.8 °F 101.5 °F 74.1 °F 56% 30.05 in 10.0 mi WSW 3.5 mph - N/A   Mostly Cloudy
2:55 PM 90.7 °F 100.1 °F 74.3 °F 58% 30.05 in 10.0 mi Calm Calm - N/A   Mostly Cloudy
3:15 PM 91.6 °F 102.9 °F 75.2 °F 59% 30.04 in 10.0 mi Calm Calm - N/A   Clear
3:35 PM 92.3 °F 102.8 °F 74.5 °F 56% 30.04 in 10.0 mi WSW 3.5 mph - N/A   Clear
3:50 PM 92.5 °F 101.9 °F 73.8 °F 54% 30.03 in 10.0 mi Calm Calm - N/A   Clear
4:15 PM 90.5 °F 100.9 °F 74.7 °F 60% 30.03 in 10.0 mi NNE 3.5 mph - N/A   Scattered Clouds
4:35 PM 90.9 °F 98.9 °F 72.7 °F 55% 30.02 in 10.0 mi ENE 3.5 mph - N/A   Clear
5:15 PM 92.3 °F 100.9 °F 73.0 °F 53% 30.01 in 10.0 mi Calm Calm - N/A   Clear
5:35 PM 92.3 °F 100.3 °F 72.1 °F 52% 30.00 in 10.0 mi ESE 4.6 mph - N/A   Clear
5:55 PM 91.2 °F 100.2 °F 73.6 °F 56% 30.00 in 10.0 mi Calm Calm - N/A   Clear
6:15 PM 90.5 °F 100.9 °F 74.7 °F 60% 30.00 in 10.0 mi Calm Calm - N/A Thunderstorm Clear
6:35 PM 87.8 °F 97.6 °F 75.4 °F 66% 30.01 in 10.0 mi Calm Calm - N/A   Clear
6:55 PM 83.8 °F 92.5 °F 75.9 °F 77% 30.01 in 10.0 mi Calm Calm - N/A   Clear
7:15 PM 82.2 °F 91.0 °F 77.5 °F 86% 30.01 in 7.0 mi Calm Calm - N/A   Clear
7:35 PM 81.5 °F 88.7 °F 76.5 °F 85% 30.02 in 7.0 mi South 3.5 mph - N/A Thunderstorm Scattered Clouds
7:55 PM 82.0 °F 88.9 °F 75.4 °F 80% 30.03 in 7.0 mi Calm Calm - N/A   Scattered Clouds
8:15 PM 81.9 °F 88.0 °F 74.3 °F 78% 30.03 in 10.0 mi South 3.5 mph - N/A   Clear
8:35 PM 81.1 °F 86.4 °F 73.8 °F 78% 30.04 in 5.0 mi Calm Calm - N/A   Haze
8:55 PM 79.2 °F - 74.7 °F 86% 30.04 in 7.0 mi Calm Calm - N/A   Clear
9:15 PM 78.1 °F - 75.2 °F 91% 30.05 in 5.0 mi Calm Calm - N/A   Clear
9:35 PM 77.5 °F - 75.2 °F 92% 30.05 in 5.0 mi Calm Calm - N/A   Clear
9:55 PM 77.5 °F - 75.7 °F 94% 30.05 in 5.0 mi Calm Calm - N/A   Scattered Clouds
10:15 PM 77.0 °F - 76.5 °F 98% 30.05 in 5.0 mi Calm Calm - N/A   Clear
10:35 PM 76.3 °F - 76.3 °F 100% 30.04 in 5.0 mi Calm Calm - N/A   Clear
10:55 PM 76.1 °F - 76.1 °F 100% 30.04 in 4.0 mi Calm Calm - N/A   Clear
11:15 PM 77.4 °F - 76.8 °F 98% 30.04 in 4.0 mi Calm Calm - N/A   Mostly Cloudy
11:35 PM 77.5 °F - 76.5 °F 96% 30.03 in 4.0 mi North 3.5 mph - N/A   Scattered Clouds
11:55 PM 77.9 °F - 76.5 °F 95% 30.03 in 5.0 mi Calm Calm - N/A   Clear